Location: Ciserano
(45.5833°N, 9.6000°E)
Time: 20:54:41
(UTC+00:00)

Cosmos 2074 Rocket - Visible Passes

Search period start: 13 April 2021 00:00
Search period end: 23 April 2021 00:00
Orbit: 966 x 987 km, 82.9° (Epoch: 13 April)

Date Brightness Start Highest point End Pass type
(mag) Time Alt. Az. Time Alt. Az. Time Alt. Az.
13 Apr 4.5 00:34:27 10° NNW 00:39:14 51° NW 00:39:14 51° NW visible
13 Apr 5.1 23:15:04 10° N 23:20:06 36° ENE 23:20:06 36° ENE visible
14 Apr 5.0 01:00:32 10° NNW 01:04:48 34° WNW 01:04:48 34° WNW visible
14 Apr 6.3 21:58:17 10° NE 22:00:02 11° ENE 22:00:59 11° ENE visible
14 Apr 4.5 23:40:33 10° N 23:45:41 55° NNE 23:45:41 55° NNE visible
15 Apr 5.6 01:27:01 10° NW 01:30:22 20° WNW 01:30:22 20° WNW visible
15 Apr 5.8 22:22:00 10° NNE 22:26:26 20° ENE 22:26:34 20° ENE visible
16 Apr 4.4 00:06:17 10° NNW 00:11:15 57° NNW 00:11:15 57° NNW visible
16 Apr 6.1 01:54:45 10° WNW 01:55:57 11° WNW 01:55:57 11° WNW visible
16 Apr 5.2 22:47:01 10° N 22:52:10 33° ENE 22:52:10 33° ENE visible
17 Apr 4.9 00:32:17 10° NNW 00:36:51 38° WNW 00:36:51 38° WNW visible
17 Apr 4.5 23:12:26 10° N 23:17:46 52° NE 23:17:46 52° NE visible
18 Apr 5.5 00:58:39 10° NNW 01:02:27 23° WNW 01:02:27 23° WNW visible
18 Apr 5.8 21:54:07 10° NNE 21:58:10 17° ENE 21:58:41 17° ENE visible
18 Apr 4.3 23:38:07 10° N 23:43:22 64° NNW 23:43:22 64° NNW visible
19 Apr 6.0 01:25:52 10° NW 01:28:03 13° WNW 01:28:03 13° WNW visible
19 Apr 5.2 22:18:59 10° N 22:24:18 29° ENE 22:24:18 29° ENE visible
20 Apr 4.7 00:04:03 10° NNW 00:08:59 44° WNW 00:08:59 44° WNW visible
20 Apr 4.6 22:44:20 10° N 22:49:55 49° ENE 22:49:55 49° ENE visible
21 Apr 5.3 00:30:19 10° NNW 00:34:37 27° WNW 00:34:37 27° WNW visible
21 Apr 5.9 21:26:19 10° NNE 21:29:53 15° ENE 21:30:52 15° ENE visible
21 Apr 4.1 23:09:57 10° N 23:15:33 72° N 23:15:33 72° N visible
22 Apr 5.9 00:57:14 10° NW 01:00:15 16° WNW 01:00:15 16° WNW visible
22 Apr 5.3 21:50:59 10° NNE 21:56:10 26° ENE 21:56:30 26° ENE visible
22 Apr 4.4 23:35:50 10° NNW 23:41:12 52° WNW 23:41:12 52° WNW visible
